Regional Weather Roundup
Issued by NWS

Home | Current Version | Previous Version | Text Only | Print | Product List | Glossary On
Versions: 1 2 3 4 5 6 7 8 9 10 11 12 13 14 15 16 17 18 19 20 21 22 23 24 25 26 27
000
ASUS45 KCYS 211510
RWRWY

WYOMING REGIONAL WEATHER ROUNDUP
NATIONAL WEATHER SERVICE CHEYENNE WY
900 AM MDT MON APR 21 2014

NOTE:  "FAIR" INDICATES FEW OR NO CLOUDS BELOW 12,000 FEET
WITH NO SIGNIFICANT WEATHER AND/OR OBSTRUCTIONS TO VISIBILITY.

WYZ001-211600-
YELLOWSTONE NATIONAL PARK

CITY           SKY/WX    TMP DP  RH WIND       PRES   REMARKS
LK YELLOWSTONE   N/A     31  20  63 E3        30.33S
W YELLOWSTONE  NOT AVBL

$$
WYZ002>013-054>058-071-098>099-211600-
NORTHERN WYOMING

CITY           SKY/WX    TMP DP  RH WIND       PRES   REMARKS
JACKSON        SUNNY     36  25  64 CALM      30.32S
CODY           MOSUNNY   48  25  40 NW3       30.25F
GREYBULL       MOSUNNY   46  24  42 SE3       30.25F
WORLAND        MOSUNNY   45  28  51 SW5       30.25S
SHERIDAN         N/A     41  25  52 SE14        N/A
BUFFALO        MOSUNNY   49  22  34 E5        30.25S
GILLETTE       MOSUNNY   52  23  32 SW6       30.26S
HULETT         FAIR      50  27  40 W6        30.26
NEWCASTLE      FAIR      50  18  27 CALM      30.27

$$
WYZ014>020-022>026-101>103-211600-
CENTRAL WYOMING

CITY           SKY/WX    TMP DP  RH WIND       PRES   REMARKS
BIG PINEY      MOSUNNY   34  18  52 CALM      30.32R
PINEDALE       MOSUNNY   36  19  51 CALM      30.32R
DUBOIS         FAIR      36  21  55 NW7       30.30S WCI  30
LANDER         MOSUNNY   44  28  53 N10       30.26R
RIVERTON       SUNNY     47  23  38 NE8       30.27S
CASPER         MOSUNNY   45  28  51 CALM      30.26F
DOUGLAS        PTSUNNY   49  32  52 SE8       30.27F

$$
WYZ021-027>030-104>119-211600-
SOUTHERN WYOMING

CITY           SKY/WX    TMP DP  RH WIND       PRES   REMARKS
EVANSTON       MOSUNNY   43  20  39 S6        30.29S
FORT BRIDGER   FAIR      44  19  37 CALM      30.32S
ROCK SPRINGS   SUNNY     44  15  31 CALM      30.29S
DIXON          FAIR      47  33  56 SE5       30.31F
RAWLINS        SUNNY     44  29  55 CALM      30.28S
SARATOGA       FAIR      50  32  50 SE8       30.28F
LARAMIE        SUNNY     46  28  49 S18       30.28S
CHEYENNE       SUNNY     48  23  37 S6        30.31S
TORRINGTON     SUNNY     51  31  46 W5        30.27S
PINE BLUFFS    FAIR      50  25  37 NE5       30.30S

$$



USA.gov is the U.S. government's official web portal to all federal, state and local government web resources and services.